• In Hungary
  • List of Countries
  • For 7 days
  • Water Temperature
  • Satellite Maps
  • Weather Map
  • News
  • Weather Widgets
  • user-avatar
    Login

    Hourly Weather Nizhnee Azyakovo

    Today, 25 February, Sunday

    Time Temperature Precipitation Wind Pressure Humidity
    00:00 -21°C° 0 mm 1 mps 757 mmHg 97%
    01:00 -22°C° 0 mm 1 mps 757 mmHg 98%
    02:00 -22°C° 0 mm 1 mps 757 mmHg 98%
    03:00 -22°C° 0 mm 1 mps 757 mmHg 98%
    04:00 -23°C° 0 mm 1 mps 757 mmHg 98%
    05:00 -23°C° 0 mm 1 mps 757 mmHg 98%
    06:00 -23°C° 0 mm 1 mps 757 mmHg 98%
    07:00 -22°C° 0 mm 1 mps 757 mmHg 97%
    08:00 -21°C° 0 mm 1 mps 757 mmHg 96%
    09:00 -20°C° 0 mm 1 mps 757 mmHg 95%
    10:00 -19°C° 0 mm 1 mps 757 mmHg 92%
    11:00 -17°C° 0 mm 1 mps 757 mmHg 89%
    12:00 -16°C° 0 mm 1 mps 757 mmHg 86%
    13:00 -16°C° 0 mm 1 mps 757 mmHg 86%
    14:00 -15°C° 0 mm 1 mps 757 mmHg 85%
    15:00 -15°C° 0 mm 1 mps 757 mmHg 85%
    16:00 -17°C° 0 mm 1 mps 757 mmHg 89%
    17:00 -18°C° 0 mm 1 mps 757 mmHg 92%
    18:00 -20°C° 0 mm 1 mps 757 mmHg 96%
    19:00 -21°C° 0 mm 1 mps 757 mmHg 96%
    20:00 -22°C° 0 mm 1 mps 757 mmHg 96%
    21:00 -22°C° 0 mm 1 mps 757 mmHg 97%
    22:00 -23°C° 0 mm 1 mps 757 mmHg 97%
    23:00 -23°C° 0 mm 1 mps 757 mmHg 97%

    Tomorrow, 26 February, Monday

    Time Temperature Precipitation Wind Pressure Humidity
    00:00 -23°C° 0 mm 1 mps 757 mmHg 97%
    01:00 -24°C° 0 mm 1 mps 757 mmHg 97%
    02:00 -24°C° 0 mm 1 mps 757 mmHg 97%
    03:00 -24°C° 0 mm 1 mps 758 mmHg 97%
    04:00 -25°C° 0 mm 1 mps 758 mmHg 98%
    05:00 -25°C° 0 mm 1 mps 758 mmHg 98%
    06:00 -25°C° 0 mm 1 mps 758 mmHg 98%
    07:00 -24°C° 0 mm 1 mps 758 mmHg 97%
    08:00 -23°C° 0 mm 1 mps 758 mmHg 96%
    09:00 -22°C° 0 mm 1 mps 759 mmHg 96%
    10:00 -23°C° 0 mm 2 mps 759 mmHg 93%
    11:00 -20°C° 0 mm 2 mps 759 mmHg 90%
    12:00 -19°C° 0 mm 2 mps 759 mmHg 87%
    13:00 -18°C° 0 mm 2 mps 759 mmHg 88%
    14:00 -18°C° 0 mm 2 mps 759 mmHg 88%
    15:00 -19°C° 0 mm 3 mps 759 mmHg 88%
    16:00 -21°C° 0 mm 3 mps 759 mmHg 91%
    17:00 -22°C° 0 mm 3 mps 759 mmHg 93%
    18:00 -24°C° 0 mm 3 mps 759 mmHg 96%
    19:00 -24°C° 0 mm 3 mps 759 mmHg 96%
    20:00 -25°C° 0 mm 3 mps 759 mmHg 96%
    21:00 -25°C° 0 mm 3 mps 759 mmHg 97%
    22:00 -25°C° 0 mm 3 mps 759 mmHg 96%
    23:00 -25°C° 0 mm 3 mps 759 mmHg 96%

    Day after tomorrow, 27 February, Tuesday

    Time Temperature Precipitation Wind Pressure Humidity
    00:00 -24°C° 0 mm 3 mps 759 mmHg 95%
    01:00 -24°C° 0 mm 3 mps 759 mmHg 95%
    02:00 -25°C° 0 mm 4 mps 759 mmHg 94%
    03:00 -25°C° 0 mm 4 mps 759 mmHg 94%
    04:00 -25°C° 0.1 mm 4 mps 759 mmHg 93%
    05:00 -25°C° 0.1 mm 4 mps 759 mmHg 93%
    06:00 -25°C° 0.1 mm 4 mps 759 mmHg 93%
    07:00 -26°C° 0.1 mm 5 mps 759 mmHg 92%
    08:00 -26°C° 0.1 mm 5 mps 759 mmHg 92%
    09:00 -25°C° 0.1 mm 5 mps 760 mmHg 91%
    10:00 -24°C° 0 mm 5 mps 760 mmHg 90%
    11:00 -24°C° 0 mm 5 mps 760 mmHg 88%
    12:00 -22°C° 0 mm 5 mps 761 mmHg 87%
    13:00 -22°C° 0 mm 5 mps 761 mmHg 87%
    14:00 -21°C° 0 mm 5 mps 761 mmHg 86%
    15:00 -21°C° 0 mm 5 mps 762 mmHg 86%
    16:00 -22°C° 0 mm 4 mps 762 mmHg 88%
    17:00 -23°C° 0 mm 4 mps 763 mmHg 90%
    18:00 -23°C° 0 mm 4 mps 763 mmHg 91%
    19:00 -24°C° 0 mm 4 mps 763 mmHg 92%
    20:00 -24°C° 0 mm 4 mps 764 mmHg 92%
    21:00 -25°C° 0 mm 4 mps 764 mmHg 92%
    22:00 -25°C° 0 mm 4 mps 764 mmHg 93%
    23:00 -25°C° 0 mm 4 mps 765 mmHg 93%

    28 February, Wednesday

    Time Temperature Precipitation Wind Pressure Humidity
    00:00 -26°C° 0 mm 4 mps 765 mmHg 93%
    01:00 -25°C° 0 mm 3 mps 765 mmHg 94%
    02:00 -26°C° 0 mm 3 mps 765 mmHg 94%
    03:00 -26°C° 0 mm 3 mps 766 mmHg 94%
    04:00 -26°C° 0 mm 3 mps 766 mmHg 94%
    05:00 -26°C° 0 mm 3 mps 766 mmHg 94%
    06:00 -27°C° 0 mm 3 mps 766 mmHg 94%
    07:00 -27°C° 0 mm 4 mps 766 mmHg 93%
    08:00 -26°C° 0 mm 4 mps 767 mmHg 92%
    09:00 -25°C° 0 mm 4 mps 767 mmHg 91%
    10:00 -24°C° 0 mm 4 mps 767 mmHg 90%
    11:00 -23°C° 0 mm 4 mps 767 mmHg 88%
    12:00 -20°C° 0 mm 4 mps 767 mmHg 86%
    13:00 -19°C° 0 mm 4 mps 767 mmHg 86%
    14:00 -19°C° 0 mm 4 mps 767 mmHg 86%
    15:00 -18°C° 0 mm 4 mps 767 mmHg 85%
    16:00 -18°C° 0 mm 3 mps 767 mmHg 88%
    17:00 -21°C° 0 mm 3 mps 767 mmHg 91%
    18:00 -20°C° 0 mm 2 mps 767 mmHg 93%
    19:00 -20°C° 0 mm 2 mps 767 mmHg 94%
    20:00 -21°C° 0 mm 2 mps 767 mmHg 95%
    21:00 -23°C° 0 mm 2 mps 767 mmHg 96%
    22:00 -23°C° 0 mm 2 mps 767 mmHg 96%
    23:00 -21°C° 0 mm 1 mps 766 mmHg 96%

    1 March, Thursday

    Time Temperature Precipitation Wind Pressure Humidity
    00:00 -21°C° 0 mm 1 mps 766 mmHg 96%
    01:00 -21°C° 0 mm 1 mps 766 mmHg 96%
    02:00 -21°C° 0 mm 1 mps 766 mmHg 95%
    03:00 -22°C° 0 mm 1 mps 766 mmHg 95%
    04:00 -22°C° 0 mm 1 mps 766 mmHg 95%
    05:00 -22°C° 0 mm 1 mps 765 mmHg 94%
    06:00 -22°C° 0 mm 1 mps 765 mmHg 94%
    07:00 -21°C° 0 mm 1 mps 765 mmHg 92%
    08:00 -19°C° 0 mm 0 mps 765 mmHg 89%
    09:00 -18°C° 0 mm 0 mps 765 mmHg 87%
    10:00 -16°C° 0 mm 0 mps 765 mmHg 84%
    11:00 -14°C° 0 mm 1 mps 765 mmHg 81%
    12:00 -12°C° 0 mm 1 mps 765 mmHg 77%
    13:00 -11°C° 0 mm 1 mps 764 mmHg 77%
    14:00 -10°C° 0 mm 1 mps 763 mmHg 77%
    15:00 -10°C° 0 mm 1 mps 763 mmHg 77%
    16:00 -12°C° 0 mm 1 mps 763 mmHg 81%
    17:00 -13°C° 0 mm 1 mps 762 mmHg 84%
    18:00 -15°C° 0 mm 1 mps 762 mmHg 87%
    19:00 -16°C° 0 mm 1 mps 762 mmHg 88%
    20:00 -16°C° 0 mm 1 mps 762 mmHg 88%
    21:00 -17°C° 0 mm 1 mps 762 mmHg 89%
    22:00 -17°C° 0 mm 1 mps 762 mmHg 89%
    23:00 -18°C° 0 mm 1 mps 761 mmHg 90%

    2 March, Friday

    Time Temperature Precipitation Wind Pressure Humidity
    00:00 -18°C° 0 mm 1 mps 761 mmHg 90%
    01:00 -18°C° 0 mm 1 mps 761 mmHg 91%
    02:00 -19°C° 0 mm 1 mps 761 mmHg 91%
    03:00 -19°C° 0 mm 1 mps 761 mmHg 92%
    04:00 -19°C° 0 mm 1 mps 760 mmHg 92%
    05:00 -20°C° 0 mm 1 mps 760 mmHg 92%
    06:00 -20°C° 0 mm 1 mps 760 mmHg 92%
    07:00 -18°C° 0 mm 1 mps 759 mmHg 90%
    08:00 -17°C° 0 mm 1 mps 759 mmHg 88%
    09:00 -15°C° 0 mm 1 mps 759 mmHg 86%
    10:00 -13°C° 0 mm 1 mps 759 mmHg 82%
    11:00 -12°C° 0 mm 1 mps 758 mmHg 79%
    12:00 -10°C° 0 mm 1 mps 758 mmHg 76%
    13:00 -9°C° 0 mm 1 mps 757 mmHg 77%
    14:00 -9°C° 0 mm 1 mps 757 mmHg 77%
    15:00 -8°C° 0 mm 1 mps 756 mmHg 78%
    16:00 -10°C° 0 mm 1 mps 756 mmHg 81%
    17:00 -12°C° 0 mm 1 mps 755 mmHg 84%
    18:00 -14°C° 0 mm 1 mps 755 mmHg 87%
    19:00 -15°C° 0 mm 1 mps 754 mmHg 87%
    20:00 -15°C° 0 mm 1 mps 754 mmHg 87%
    21:00 -16°C° 0 mm 1 mps 753 mmHg 87%
    22:00 -17°C° 0 mm 1 mps 753 mmHg 86%
    23:00 -17°C° 0 mm 1 mps 752 mmHg 85%
    Show more